Wind_Speed
13 12 11 11 9 9 9 9 10 11 11 11 10 11 12 12 11 11 14 15 15 15 16 16 17 17 18 18 18 19 18 19 18 17 15 13 12 11 11 10 11 8 9
12 12 12 11 11 11 11 10 10 10 10 10 10 10 10 11 10 11 10 11 11 13 14 14 14 15 15 16 16 17 17 17 16 15 14 13 12 10 8 7 8 9 8
13 13 13 12 12 12 12 11 10 10 9 8 9 8 9 9 10 9 8 9 8 8 9 10 11 12 13 15 16 15 15 15 15 16 15 14 12 11 8 5 3 3 4
14 14 13 13 14 13 13 12 11 10 9 9 8 8 7 8 8 8 9 8 4 3 5 6 7 9 11 12 13 15 17 17 18 18 18 17 15 12 10 9 6 4 4
15 15 14 15 15 15 13 12 11 9 9 8 8 7 6 7 6 5 5 4 4 3 0 2 5 7 8 10 12 13 14 15 16 17 17 18 18 17 14 10 8 7 6
17 15 16 16 16 16 13 13 10 9 8 7 7 6 5 6 6 6 4 3 4 4 4 4 6 7 8 9 11 14 15 16 17 18 18 18 17 17 17 17 14 10 9
20 17 16 16 17 15 14 13 10 9 9 8 7 6 5 5 6 7 8 6 7 7 7 7 6 6 11 12 12 14 15 17 18 20 20 19 17 15 13 12 14 16 12
19 21 21 21 19 15 13 14 13 11 9 10 6 6 6 6 8 9 9 9 8 9 8 8 6 7 9 14 16 17 18 19 21 22 22 21 18 16 13 10 10 12 14
20 24 24 21 20 15 14 14 16 13 9 9 10 6 5 7 8 11 11 12 10 11 8 10 9 13 13 15 18 20 22 22 24 24 23 21 18 16 14 12 11 9 12
27 28 28 26 25 24 20 17 14 12 11 11 11 14 13 7 4 4 9 12 12 9 11 14 12 14 15 16 19 22 23 26 26 25 23 21 18 17 14 13 12 11 10
31 30 29 30 26 22 20 18 17 12 11 13 14 12 15 18 17 14 12 10 12 13 15 18 14 17 14 18 20 19 25 26 26 25 23 21 19 17 16 15 13 12 11
36 36 40 38 40 33 33 24 20 20 14 19 18 15 16 12 12 14 15 15 14 16 13 15 16 17 15 16 19 19 25 25 23 23 23 22 21 19 17 16 14 13 13
33 37 39 42 41 40 33 26 24 18 21 21 21 19 18 17 17 16 13 15 15 12 12 13 13 13 13 14 13 19 24 25 24 25 22 22 21 21 20 18 16 14 13
16 13 21 29 35 34 28 26 24 23 23 23 22 21 22 22 21 21 19 15 17 17 16 17 16 13 15 13 17 21 23 16 16 22 24 22 23 22 21 19 17 16 14
8 10 19 24 26 26 23 24 25 25 23 20 18 19 21 20 22 20 18 15 12 15 16 15 14 12 12 14 16 20 18 18 18 21 25 27 25 24 24 22 20 18 18
6 9 17 22 25 22 21 22 23 18 17 20 19 22 20 17 17 17 16 15 16 17 19 18 17 17 17 18 18 21 20 22 21 20 20 23 23 23 24 24 24 22 20
5 5 16 26 23 22 19 16 18 22 22 25 23 18 17 17 15 11 18 23 23 20 20 22 18 17 18 19 19 21 20 21 20 19 19 21 22 22 24 25 26 24 22
8 8 10 12 9 8 9 11 15 17 13 13 13 15 16 15 17 23 25 24 19 17 18 21 19 19 19 19 20 22 23 18 19 19 20 20 23 29 25 22 23 23 23
9 9 9 8 7 7 7 8 7 7 8 8 12 17 18 17 16 15 13 17 18 18 19 21 23 20 19 18 21 22 22 19 19 18 18 18 20 19 18 18 19 20 19
10 9 8 7 7 7 8 8 10 10 10 10 11 11 12 14 15 16 18 18 19 21 22 23 24 22 22 31 26 24 22 25 26 22 23 24 19 18 17 18 19 21 18
6 4 3 2 3 3 9 10 9 11 11 11 11 13 14 16 17 22 23 24 23 24 25 27 31 33 33 30 24 27 27 29 24 22 23 16 12 15 14 15 16 15 14
2 1 0 1 3 3 11 11 12 11 9 11 12 14 15 17 18 18 19 22 23 27 28 27 29 28 27 25 25 20 23 28 28 19 21 17 14 15 15 15 15 18 22
5 4 4 3 2 5 11 12 14 13 10 11 13 14 15 15 17 18 18 20 21 23 24 26 30 30 29 28 27 29 29 25 26 25 22 24 18 21 19 17 19 19 20
4 3 4 6 6 8 14 14 15 13 10 12 13 14 16 17 17 18 19 20 22 23 23 24 25 32 33 28 26 25 25 27 27 25 25 23 25 29 17 17 17 19 20
3 5 7 9 8 7 16 19 18 17 14 14 14 14 15 16 17 19 21 24 26 26 24 23 25 26 27 27 27 26 29 29 30 25 24 19 23 16 15 17 17 17 19
7 10 9 9 12 13 12 19 19 17 14 14 16 17 20 19 20 20 22 23 26 24 22 24 24 24 24 26 26 29 29 28 26 27 26 18 18 15 18 18 16 17 18
Wind_Direction
170 171 166 165 163 161 146 148 134 124 123 124 118 112 111 110 108 106 106 100 92 84 75 67 63 60 60 58 55 51 49 47 46 44 42 39 41 44 42 41 48 61 67
175 171 170 167 169 158 156 145 142 138 129 127 123 124 117 119 114 112 113 107 101 88 79 70 60 54 50 47 45 41 38 35 36 35 35 34 32 33 29 29 30 21 32
180 174 172 172 167 164 156 153 154 137 139 131 120 121 121 119 124 120 103 104 100 77 75 68 59 53 45 40 35 33 32 27 22 22 21 22 21 20 20 17 354 4 15
178 177 175 170 168 164 165 162 162 153 148 144 138 140 137 129 135 138 142 136 105 77 69 58 47 39 33 29 25 21 17 16 13 10 5 1 1 0 2 358 344 320 294
179 174 178 176 169 172 170 168 163 167 158 158 161 154 146 146 156 151 150 175 163 162 299 12 8 12 14 16 12 10 7 4 2 360 355 353 349 343 338 335 329 320 297
180 173 176 178 178 178 172 171 175 176 175 175 172 169 176 177 179 168 194 188 232 231 263 310 338 334 341 344 351 351 351 350 348 347 344 341 337 335 340 331 320 312 301
188 180 179 177 181 186 185 175 182 181 182 182 178 186 195 205 212 211 202 202 250 260 276 277 290 316 316 320 334 336 336 336 335 332 330 327 325 327 327 335 335 318 305
202 201 198 191 190 186 190 181 188 187 195 189 195 212 220 233 223 227 234 221 231 268 260 270 275 280 286 301 315 320 324 325 325 324 322 319 315 313 314 318 322 324 319
204 202 200 199 193 183 195 188 202 184 212 215 203 213 236 250 228 247 242 243 233 246 255 262 256 271 279 289 303 310 318 319 320 319 316 312 309 304 306 308 303 303 307
213 213 207 202 197 195 193 194 210 216 219 254 260 242 229 254 280 233 226 243 238 235 246 257 244 263 282 285 294 300 308 310 310 309 306 302 300 299 300 297 307 305 296
222 216 211 208 209 209 211 198 205 205 240 262 260 265 266 250 253 260 276 242 233 247 244 252 273 266 270 278 289 289 300 302 303 302 298 297 296 296 296 297 295 291 287
219 221 228 218 213 208 206 208 221 218 224 262 258 257 264 267 266 259 256 259 270 268 258 253 255 259 273 273 287 286 292 298 297 295 295 294 293 291 289 291 293 291 280
223 220 214 213 215 212 214 209 223 218 251 258 260 256 250 249 245 247 258 263 264 258 258 261 257 260 264 271 281 276 286 297 297 295 293 290 290 289 287 284 288 290 283
215 229 228 221 216 215 217 215 217 245 255 258 260 257 259 262 258 264 262 260 265 261 271 269 267 256 270 276 267 277 289 303 297 294 292 290 287 285 283 284 283 284 280
207 221 226 223 209 213 211 214 233 253 250 252 259 265 263 260 265 262 260 262 264 283 280 269 285 278 257 263 268 270 279 280 281 278 284 289 285 281 278 276 277 278 277
261 246 218 205 207 208 211 232 241 242 252 255 265 274 267 258 261 262 271 269 274 274 275 270 269 273 277 267 274 278 286 286 291 291 289 287 283 278 276 274 273 273 273
266 230 211 209 214 219 224 222 242 255 262 260 257 258 256 264 267 275 290 291 281 270 270 275 268 271 274 283 284 285 284 283 285 282 281 280 282 279 274 273 273 272 270
98 129 174 200 210 217 228 247 251 253 247 251 262 261 265 270 279 291 290 282 274 267 270 275 277 275 275 280 281 285 290 288 291 290 286 278 271 281 281 275 273 274 270
117 133 152 171 184 190 195 211 221 241 244 245 249 273 281 285 288 286 278 273 270 271 272 275 277 277 275 276 282 288 290 289 284 284 280 284 288 300 295 277 270 265 266
111 120 136 154 173 196 222 239 244 250 268 281 285 286 281 276 274 273 272 273 276 277 273 273 276 275 275 295 299 285 281 284 298 294 291 275 280 278 284 284 278 270 270
113 120 136 195 230 241 242 249 267 285 286 282 277 277 281 280 269 263 269 266 270 271 272 271 274 277 284 290 283 284 284 298 293 284 291 297 293 283 285 287 292 294 276
78 93 238 272 296 262 278 279 277 271 279 281 276 276 273 274 279 277 274 273 273 273 276 277 281 282 283 283 291 284 290 290 288 280 284 283 273 275 270 263 262 267 274
73 60 35 22 4 299 299 306 300 299 284 287 287 288 287 284 281 284 282 281 278 275 273 275 276 276 278 280 281 282 283 281 280 284 284 274 276 275 281 262 264 261 272
42 13 346 336 332 311 311 313 311 309 301 293 291 291 291 289 288 289 289 285 280 277 275 274 273 274 278 278 277 275 276 272 270 272 269 269 272 282 283 264 271 256 262
355 334 335 333 334 330 309 313 311 310 305 303 305 300 293 290 291 290 290 288 289 286 288 283 281 281 279 277 277 281 282 276 286 281 274 282 273 272 275 269 276 276 276
328 329 334 334 324 325 313 306 309 311 312 304 296 301 302 302 301 299 296 293 290 293 292 287 282 276 271 265 269 272 274 274 274 279 287 256 262 271 277 272 274 263 260
Height
1546 1548 1550 1552 1555 1556 1557 1559 1561 1561 1564 1566 1567 1567 1568 1568 1568 1567 1568 1567 1567 1566 1567 1568 1567 1566 1566 1565 1565 1564 1565 1564 1564 1564 1564 1564 1563 1563 1563 1563 1562 1562 1561
1546 1547 1549 1551 1554 1556 1558 1560 1562 1563 1564 1567 1568 1569 1569 1569 1569 1567 1568 1569 1570 1569 1568 1570 1570 1569 1568 1568 1567 1567 1566 1567 1566 1566 1566 1565 1565 1564 1564 1564 1565 1565 1564
1545 1546 1549 1550 1553 1556 1558 1561 1563 1564 1565 1567 1568 1570 1571 1570 1571 1571 1570 1570 1572 1572 1570 1571 1571 1571 1571 1569 1569 1568 1567 1567 1567 1567 1567 1566 1566 1565 1564 1564 1564 1564 1564
1542 1544 1547 1549 1552 1555 1558 1560 1562 1564 1565 1567 1569 1570 1571 1571 1573 1572 1573 1572 1573 1573 1574 1572 1573 1573 1572 1571 1570 1570 1570 1569 1568 1568 1567 1567 1566 1566 1566 1565 1564 1564 1564
1539 1542 1546 1548 1551 1554 1556 1559 1561 1564 1566 1567 1569 1571 1572 1572 1573 1573 1572 1573 1573 1573 1572 1573 1573 1573 1573 1573 1572 1571 1570 1569 1569 1567 1568 1567 1567 1566 1565 1565 1564 1564 1563
1538 1540 1544 1547 1549 1552 1556 1558 1562 1564 1566 1567 1569 1570 1572 1572 1573 1574 1573 1574 1573 1573 1573 1572 1572 1573 1573 1573 1572 1573 1571 1570 1569 1568 1567 1566 1566 1565 1564 1563 1562 1562 1562
1534 1538 1542 1544 1547 1551 1554 1557 1562 1564 1566 1568 1569 1570 1571 1572 1571 1572 1572 1573 1572 1572 1572 1572 1571 1571 1571 1571 1571 1571 1570 1569 1569 1568 1567 1564 1563 1563 1563 1562 1561 1559 1560
1530 1534 1539 1542 1545 1550 1553 1556 1559 1562 1565 1567 1568 1569 1570 1571 1570 1571 1570 1571 1572 1571 1570 1571 1570 1570 1571 1570 1570 1569 1568 1567 1566 1565 1564 1563 1562 1560 1559 1559 1560 1559 1557
1528 1530 1535 1541 1544 1548 1552 1555 1556 1559 1563 1565 1566 1568 1569 1569 1567 1567 1567 1568 1568 1569 1569 1569 1568 1566 1566 1566 1566 1565 1565 1564 1563 1561 1560 1559 1558 1557 1558 1557 1556 1557 1556
1525 1526 1530 1536 1539 1543 1549 1551 1554 1557 1560 1563 1563 1565 1566 1568 1568 1567 1566 1565 1565 1566 1567 1567 1567 1564 1563 1563 1562 1560 1561 1561 1559 1557 1556 1556 1554 1553 1552 1552 1553 1554 1555
1521 1524 1527 1531 1537 1541 1545 1546 1550 1554 1559 1563 1563 1564 1564 1565 1565 1565 1564 1563 1563 1562 1562 1563 1563 1563 1560 1558 1558 1556 1556 1555 1554 1553 1553 1551 1551 1549 1549 1549 1548 1547 1550
1514 1516 1519 1522 1530 1533 1537 1545 1550 1555 1557 1561 1561 1561 1562 1563 1563 1562 1561 1561 1560 1559 1557 1557 1558 1558 1558 1556 1554 1553 1551 1550 1550 1549 1548 1547 1546 1546 1545 1544 1544 1544 1543
1509 1507 1510 1514 1521 1530 1536 1544 1548 1552 1555 1557 1558 1558 1559 1560 1559 1559 1558 1558 1557 1558 1554 1555 1555 1554 1554 1552 1552 1549 1546 1544 1544 1544 1543 1543 1541 1541 1540 1539 1540 1540 1540
1508 1511 1512 1518 1521 1530 1536 1542 1546 1549 1551 1552 1553 1554 1554 1555 1554 1554 1554 1554 1553 1553 1552 1550 1549 1549 1548 1548 1547 1545 1542 1539 1538 1538 1536 1537 1536 1535 1535 1535 1535 1535 1535
1512 1514 1516 1520 1526 1531 1535 1539 1543 1546 1546 1547 1549 1549 1550 1549 1549 1548 1550 1551 1551 1551 1549 1549 1548 1544 1543 1543 1542 1539 1536 1535 1534 1533 1529 1528 1530 1529 1529 1529 1530 1530 1530
1512 1514 1516 1521 1526 1530 1534 1537 1540 1541 1542 1544 1545 1545 1545 1545 1544 1544 1546 1547 1548 1548 1545 1545 1543 1542 1539 1538 1536 1534 1532 1529 1526 1525 1523 1523 1521 1521 1523 1523 1523 1524 1524
1512 1513 1516 1521 1524 1528 1531 1534 1536 1538 1539 1540 1540 1541 1542 1541 1541 1542 1542 1544 1544 1544 1541 1538 1538 1536 1535 1533 1531 1529 1527 1524 1521 1520 1518 1518 1515 1515 1515 1514 1516 1516 1518
1513 1514 1518 1522 1525 1527 1530 1532 1534 1535 1538 1537 1538 1538 1539 1538 1537 1537 1539 1539 1538 1538 1537 1534 1532 1530 1529 1527 1525 1523 1520 1519 1517 1515 1513 1512 1511 1510 1507 1507 1508 1510 1511
1519 1520 1522 1525 1527 1529 1532 1532 1533 1535 1536 1537 1536 1535 1535 1534 1533 1533 1535 1534 1534 1533 1531 1529 1527 1526 1523 1522 1520 1519 1516 1514 1513 1510 1508 1506 1506 1502 1501 1502 1503 1505 1505
1523 1524 1525 1526 1528 1529 1530 1531 1532 1533 1533 1532 1532 1533 1532 1532 1531 1531 1530 1529 1528 1527 1525 1524 1522 1520 1517 1517 1515 1513 1509 1508 1506 1505 1502 1502 1500 1498 1498 1499 1500 1500 1500
1524 1526 1526 1527 1527 1528 1528 1529 1529 1528 1528 1530 1529 1529 1529 1528 1526 1524 1523 1522 1521 1521 1519 1517 1516 1514 1512 1510 1509 1507 1504 1502 1501 1500 1498 1495 1494 1494 1495 1496 1496 1496 1495
1524 1526 1527 1526 1525 1526 1525 1525 1525 1524 1526 1525 1524 1524 1522 1521 1520 1519 1518 1516 1516 1514 1512 1511 1509 1506 1504 1505 1503 1500 1497 1497 1496 1497 1494 1491 1491 1490 1492 1493 1493 1492 1491
1526 1527 1526 1526 1526 1524 1521 1520 1520 1520 1520 1521 1519 1518 1517 1517 1515 1513 1512 1511 1510 1509 1507 1505 1502 1501 1500 1499 1497 1494 1493 1492 1491 1490 1488 1484 1486 1486 1487 1488 1488 1488 1487
1524 1525 1525 1523 1522 1520 1517 1517 1516 1516 1516 1516 1514 1513 1512 1510 1509 1507 1505 1503 1502 1501 1500 1499 1496 1494 1493 1491 1490 1489 1488 1486 1484 1484 1483 1478 1479 1480 1482 1482 1482 1482 1482
1523 1523 1522 1520 1518 1518 1514 1513 1512 1511 1511 1510 1510 1509 1506 1504 1503 1502 1499 1497 1494 1493 1493 1492 1489 1487 1486 1485 1484 1481 1480 1478 1477 1475 1476 1474 1474 1476 1477 1478 1478 1478 1478
1520 1519 1517 1517 1516 1515 1514 1510 1509 1508 1507 1506 1504 1502 1499 1499 1498 1496 1495 1493 1490 1489 1488 1485 1483 1480 1479 1477 1477 1477 1476 1474 1473 1470 1468 1470 1470 1472 1471 1472 1472 1473 1472